Date String (YYYY-MM-DD hh:mm:ss) UTC,Instrument flags,Ambient pressure (hPa),Sample flow (lpm),Bypass flow (lpm),Sample temperature (°C),Ambient temperature (°C),ASC tube jacket temperature (°C),LED temperature (°C),Box temperature (°C),Sample RH (%),Span deviation,Mass concentration (μg/m³),Mass concentration (μg/m³),Mass concentration (μg/m³)
DateTimeUTC,F1_M11,P_M11,Q1_M11,Q2_M11,T1_M11,T2_M11,T3_M11,T4_M11,T5_M11,U1_M11,ZSPAN_M11,X0_M11,X2_M11,X1_M11
2022-02-18 10:00:00,,0825.7,4.99,0.00,21.5,20.9,00.0,30.8,23.1,07.5,0000.0,0003.97,0001.64,0001.28
2022-02-18 10:01:00,,0825.8,4.99,0.00,21.7,21.9,00.0,30.8,23.4,07.4,0000.0,0003.87,0001.56,0001.23
2022-02-18 10:02:00,,0825.7,5.02,0.00,21.8,22.8,00.0,30.9,23.8,07.4,0000.0,0003.42,0001.45,0001.19
2022-02-18 10:03:00,,0825.8,5.00,0.00,22.0,22.9,00.0,30.9,23.9,07.3,0000.0,0002.90,0001.42,0001.19
2022-02-18 10:04:00,,0825.7,4.99,0.00,22.0,22.5,00.0,30.9,23.8,07.3,0000.0,0003.00,0001.45,0001.21
2022-02-18 10:05:00,,0825.6,5.00,0.00,21.9,22.1,00.0,30.9,23.6,07.3,0000.0,0003.29,0001.47,0001.21
2022-02-18 10:06:00,,0825.6,5.02,0.00,21.8,21.8,00.0,30.9,23.5,07.3,0000.0,0003.37,0001.50,0001.23
2022-02-18 10:07:00,,0825.6,4.99,0.00,21.8,21.5,00.0,30.9,23.4,07.4,0000.0,0003.32,0001.50,0001.24
2022-02-18 10:08:00,,0825.5,5.00,0.00,21.8,21.3,00.0,30.9,23.3,07.4,0000.0,0003.27,0001.50,0001.26
2022-02-18 10:09:00,,0825.6,4.99,0.00,21.7,21.2,00.0,30.8,23.3,07.7,0000.0,0003.08,0001.63,0001.40
2022-02-18 10:10:00,,0825.7,5.00,0.00,21.7,21.1,00.0,30.8,23.3,07.7,0000.0,0002.62,0001.81,0001.61
2022-02-18 10:11:00,,0825.8,5.01,0.00,21.7,21.1,00.0,30.8,23.3,07.9,0000.0,0003.24,0002.20,0001.93
2022-02-18 10:12:00,,0825.7,4.99,0.00,21.7,21.0,00.0,30.8,23.3,08.0,0000.0,0003.79,0002.66,0002.35
2022-02-18 10:13:00,,0825.7,5.00,0.00,21.6,21.0,00.0,30.8,23.2,08.0,0000.0,0005.04,0003.13,0002.81
2022-02-18 10:14:00,,0825.7,5.00,0.00,21.6,20.9,00.0,30.8,23.2,08.0,0000.0,0006.25,0003.42,0003.19
2022-02-18 10:15:00,,0825.7,5.00,0.00,21.6,20.9,00.0,30.7,23.1,08.0,0000.0,0006.65,0003.64,0003.42
2022-02-18 10:16:00,,0825.6,5.00,0.00,21.6,21.5,00.0,30.8,23.3,08.0,0000.0,0006.85,0003.89,0003.67
2022-02-18 10:17:00,,0825.6,5.02,0.00,21.8,22.4,00.0,30.8,23.6,07.9,0000.0,0007.31,0004.16,0003.94
2022-02-18 10:18:00,,0825.6,5.01,0.00,21.9,22.9,00.0,30.8,23.8,07.8,0000.0,0007.61,0004.40,0004.18
2022-02-18 10:19:00,,0825.6,4.99,0.00,22.0,22.6,00.0,30.8,23.8,07.7,0000.0,0007.90,0004.64,0004.40
2022-02-18 10:20:00,,0825.7,4.99,0.00,21.9,22.2,00.0,30.8,23.7,07.6,0000.0,0008.12,0004.78,0004.51
2022-02-18 10:21:00,,0825.7,5.00,0.00,21.9,22.0,00.0,30.9,23.6,07.6,0000.4,0008.25,0004.88,0004.59
2022-02-18 10:22:00,,0825.7,5.00,0.00,21.9,21.7,00.0,30.8,23.5,07.7,0001.0,0008.22,0004.92,0004.66
2022-02-18 10:23:00,,0825.7,5.01,0.00,21.8,21.6,00.0,30.8,23.5,07.8,0001.0,0008.26,0004.97,0004.70
2022-02-18 10:24:00,,0825.8,5.00,0.00,21.8,21.4,00.0,30.8,23.4,07.8,0001.0,0007.86,0004.95,0004.70
2022-02-18 10:25:00,,0825.8,4.99,0.00,21.7,21.2,00.0,30.8,23.3,07.8,0000.7,0007.51,0004.95,0004.69
2022-02-18 10:26:00,,0825.9,4.99,0.00,21.7,21.1,00.0,30.8,23.3,07.8,0000.0,0007.61,0005.00,0004.70
2022-02-18 10:27:00,,0825.9,5.01,0.00,21.7,21.0,00.0,30.8,23.3,07.9,0000.5,0007.62,0005.00,0004.69
2022-02-18 10:28:00,,0825.9,4.99,0.00,21.7,21.0,00.0,30.8,23.3,07.9,0000.1,0007.73,0005.03,0004.69
2022-02-18 10:29:00,,0826.0,5.00,0.00,21.7,21.0,00.0,30.8,23.3,08.0,0000.0,0007.88,0005.10,0004.71
2022-02-18 10:30:00,,0826.0,5.00,0.00,21.7,21.3,00.0,30.8,23.4,07.9,0000.0,0007.87,0005.10,0004.72
2022-02-18 10:31:00,,0826.0,5.01,0.00,21.8,22.1,00.0,30.8,23.6,07.8,0000.0,0007.83,0005.10,0004.73
2022-02-18 10:32:00,,0826.0,5.00,0.00,21.9,22.9,00.0,30.8,23.9,07.6,0000.0,0007.67,0005.01,0004.65
2022-02-18 10:33:00,,0826.0,4.99,0.00,22.0,22.9,00.0,30.9,24.0,07.5,0000.0,0007.49,0004.84,0004.49
2022-02-18 10:34:00,,0826.0,5.00,0.00,22.1,22.6,00.0,30.9,24.0,07.5,0000.0,0007.38,0004.66,0004.30
2022-02-18 10:35:00,,0826.0,5.00,0.00,22.1,22.3,00.0,30.9,23.9,07.4,0000.0,0007.34,0004.50,0004.11
2022-02-18 10:36:00,,0825.9,4.98,0.00,22.0,22.0,00.0,30.9,23.8,07.4,0000.0,0007.11,0004.30,0003.93
2022-02-18 10:37:00,,0825.9,5.01,0.00,22.0,21.8,00.0,30.9,23.6,07.4,0000.0,0007.75,0004.05,0003.71
2022-02-18 10:38:00,,0825.8,5.01,0.00,21.9,21.6,00.0,30.9,23.5,07.4,0000.0,0007.49,0003.80,0003.48
2022-02-18 10:39:00,,0825.7,5.00,0.00,21.9,21.4,00.0,30.9,23.5,07.4,0000.0,0006.87,0003.49,0003.22
2022-02-18 10:40:00,,0825.7,5.00,0.00,21.8,21.2,00.0,30.9,23.4,07.4,0000.0,0006.14,0003.18,0002.81
2022-02-18 10:41:00,,0825.7,4.99,0.00,21.8,21.1,00.0,30.9,23.4,07.4,0000.0,0005.56,0002.77,0002.38
2022-02-18 10:42:00,,0825.8,5.01,0.00,21.7,21.1,00.0,30.9,23.3,07.5,0000.0,0005.26,0002.45,0002.08
2022-02-18 10:43:00,,0825.9,5.01,0.00,21.7,21.1,00.0,30.8,23.3,07.5,0000.0,0005.10,0002.25,0001.87
2022-02-18 10:44:00,,0825.8,4.99,0.00,21.7,21.0,00.0,30.8,23.3,07.5,0000.0,0004.96,0002.12,0001.74
2022-02-18 10:45:00,,0825.9,5.00,0.00,21.7,21.1,00.0,30.8,23.3,07.5,0000.0,0004.63,0001.95,0001.62
2022-02-18 10:46:00,,0826.0,5.01,0.00,21.8,21.7,00.0,30.8,23.5,07.5,0000.0,0004.25,0001.83,0001.55
2022-02-18 10:47:00,,0825.9,4.99,0.00,21.9,22.6,00.0,30.9,23.8,07.5,0000.0,0004.11,0001.76,0001.48
2022-02-18 10:48:00,,0825.9,5.00,0.00,22.1,23.1,00.0,30.9,24.1,07.3,0000.0,0002.74,0001.75,0001.48
2022-02-18 10:49:00,,0826.0,4.99,0.00,22.1,22.8,00.0,30.9,24.1,07.2,0000.0,0002.38,0001.69,0001.46
2022-02-18 10:50:00,,0825.9,5.02,0.00,22.1,22.5,00.0,31.0,24.0,07.5,0000.0,0002.46,0001.73,0001.50
2022-02-18 10:51:00,,0825.9,5.00,0.00,22.1,22.2,00.0,31.0,23.9,07.7,0000.0,0003.92,0001.93,0001.69
2022-02-18 10:52:00,,0826.0,5.00,0.00,22.1,22.0,00.0,31.0,23.8,07.6,0000.0,0004.74,0002.20,0001.92
2022-02-18 10:53:00,,0826.0,5.02,0.00,22.0,21.8,00.0,31.0,23.7,07.7,0000.0,0005.03,0002.47,0002.18
2022-02-18 10:54:00,,0826.0,4.99,0.00,22.0,21.7,00.0,31.0,23.7,07.6,0000.0,0005.25,0002.71,0002.43
2022-02-18 10:55:00,,0826.0,5.00,0.00,22.0,21.6,00.0,31.0,23.7,07.4,0000.0,0005.32,0002.78,0002.51
2022-02-18 10:56:00,,0826.1,5.00,0.00,22.0,21.5,00.0,31.0,23.6,07.6,0000.0,0005.56,0002.98,0002.67
2022-02-18 10:57:00,,0826.0,5.00,0.00,21.9,21.4,00.0,31.0,23.6,07.6,0000.0,0005.93,0003.17,0002.87
2022-02-18 10:58:00,,0826.0,4.99,0.00,21.9,21.3,00.0,31.0,23.5,07.6,0000.0,0006.23,0003.28,0003.06
2022-02-18 10:59:00,,0826.0,5.00,0.00,21.9,21.3,00.0,30.9,23.5,07.6,0000.0,0006.33,0003.37,0003.16
